• In Deutschland
  • Länderverzeichnis
  • Für 7 Tage
  • Wassertemperatur
  • Satellitenkarten
  • Wetterkarte
  • Widgets
  • user-avatar
    Anmelden

    Stündliche Wetter Buchholz in der Nordheide

    Heute, 19 Februar, Montag

    Zeit Temperatur Niederschläge Wind Luftdruck Luftfeuchtigkeit
    00:00 -2°C° 0 mm 2 m/S 761 mmHg 86%
    01:00 -2°C° 0 mm 2 m/S 761 mmHg 88%
    02:00 -2°C° 0 mm 2 m/S 760 mmHg 87%
    03:00 -2°C° 0 mm 2 m/S 760 mmHg 87%
    04:00 -2°C° 0 mm 2 m/S 760 mmHg 86%
    05:00 -2°C° 0 mm 2 m/S 759 mmHg 86%
    06:00 -2°C° 0 mm 2 m/S 759 mmHg 85%
    07:00 -2°C° 0 mm 2 m/S 759 mmHg 85%
    08:00 -1°C° 0 mm 2 m/S 759 mmHg 81%
    09:00 +1°C° 0 mm 2 m/S 759 mmHg 77%
    10:00 +2°C° 0 mm 2 m/S 759 mmHg 73%
    11:00 +3°C° 0 mm 2 m/S 758 mmHg 69%
    12:00 +4°C° 0 mm 2 m/S 758 mmHg 64%
    13:00 +6°C° 0 mm 1 m/S 758 mmHg 60%
    14:00 +6°C° 0 mm 1 m/S 758 mmHg 61%
    15:00 +6°C° 0 mm 1 m/S 758 mmHg 63%
    16:00 +6°C° 0 mm 1 m/S 757 mmHg 64%
    17:00 +4°C° 0 mm 1 m/S 757 mmHg 68%
    18:00 +3°C° 0 mm 1 m/S 757 mmHg 73%
    19:00 +1°C° 0 mm 1 m/S 757 mmHg 77%
    20:00 +1°C° 0 mm 1 m/S 757 mmHg 78%
    21:00 +1°C° 0 mm 1 m/S 757 mmHg 79%
    22:00 0°C° 0 mm 1 m/S 757 mmHg 80%
    23:00 0°C° 0 mm 1 m/S 757 mmHg 81%

    Morgen, 20 Februar, Dienstag

    Zeit Temperatur Niederschläge Wind Luftdruck Luftfeuchtigkeit
    00:00 0°C° 0 mm 1 m/S 758 mmHg 82%
    01:00 0°C° 0 mm 1 m/S 758 mmHg 83%
    02:00 -1°C° 0 mm 1 m/S 758 mmHg 84%
    03:00 -1°C° 0 mm 1 m/S 758 mmHg 84%
    04:00 -1°C° 0 mm 1 m/S 757 mmHg 85%
    05:00 -3°C° 0 mm 2 m/S 758 mmHg 85%
    06:00 -3°C° 0 mm 2 m/S 758 mmHg 86%
    07:00 -3°C° 0 mm 2 m/S 758 mmHg 86%
    08:00 -2°C° 0 mm 2 m/S 758 mmHg 80%
    09:00 -1°C° 0 mm 2 m/S 758 mmHg 74%
    10:00 +1°C° 0 mm 2 m/S 759 mmHg 67%
    11:00 +2°C° 0 mm 2 m/S 759 mmHg 62%
    12:00 +2°C° 0 mm 3 m/S 759 mmHg 58%
    13:00 +3°C° 0 mm 3 m/S 759 mmHg 53%
    14:00 +3°C° 0 mm 3 m/S 759 mmHg 54%
    15:00 +3°C° 0 mm 3 m/S 759 mmHg 56%
    16:00 +3°C° 0 mm 3 m/S 759 mmHg 57%
    17:00 +1°C° 0 mm 3 m/S 760 mmHg 64%
    18:00 0°C° 0 mm 3 m/S 760 mmHg 72%
    19:00 -2°C° 0 mm 3 m/S 760 mmHg 79%
    20:00 -2°C° 0 mm 2 m/S 761 mmHg 81%
    21:00 -3°C° 0 mm 2 m/S 761 mmHg 83%
    22:00 -3°C° 0 mm 2 m/S 762 mmHg 84%
    23:00 -3°C° 0 mm 2 m/S 762 mmHg 85%

    übermorgen, 21 Februar, Mittwoch

    Zeit Temperatur Niederschläge Wind Luftdruck Luftfeuchtigkeit
    00:00 -3°C° 0 mm 2 m/S 762 mmHg 86%
    01:00 -4°C° 0 mm 2 m/S 763 mmHg 86%
    02:00 -4°C° 0 mm 2 m/S 763 mmHg 86%
    03:00 -4°C° 0 mm 2 m/S 763 mmHg 85%
    04:00 -4°C° 0 mm 2 m/S 763 mmHg 84%
    05:00 -2°C° 0 mm 1 m/S 763 mmHg 85%
    06:00 -2°C° 0 mm 1 m/S 763 mmHg 85%
    07:00 -2°C° 0 mm 1 m/S 763 mmHg 86%
    08:00 -1°C° 0 mm 1 m/S 763 mmHg 79%
    09:00 +1°C° 0 mm 1 m/S 763 mmHg 73%
    10:00 +1°C° 0 mm 2 m/S 763 mmHg 66%
    11:00 +3°C° 0 mm 1 m/S 763 mmHg 61%
    12:00 +4°C° 0 mm 1 m/S 763 mmHg 56%
    13:00 +5°C° 0 mm 1 m/S 763 mmHg 51%
    14:00 +3°C° 0 mm 2 m/S 763 mmHg 53%
    15:00 +3°C° 0 mm 2 m/S 762 mmHg 55%
    16:00 +3°C° 0 mm 2 m/S 762 mmHg 56%
    17:00 +2°C° 0 mm 2 m/S 762 mmHg 63%
    18:00 -1°C° 0 mm 2 m/S 762 mmHg 70%
    19:00 -2°C° 0 mm 2 m/S 762 mmHg 77%
    20:00 -2°C° 0 mm 2 m/S 762 mmHg 79%
    21:00 -3°C° 0 mm 2 m/S 763 mmHg 82%
    22:00 -3°C° 0 mm 2 m/S 763 mmHg 84%
    23:00 -3°C° 0 mm 2 m/S 763 mmHg 85%

    22 Februar, Donnerstag

    Zeit Temperatur Niederschläge Wind Luftdruck Luftfeuchtigkeit
    00:00 -3°C° 0 mm 2 m/S 763 mmHg 85%
    01:00 -4°C° 0 mm 2 m/S 763 mmHg 86%
    02:00 -4°C° 0 mm 2 m/S 763 mmHg 85%
    03:00 -4°C° 0 mm 2 m/S 763 mmHg 85%
    04:00 -4°C° 0 mm 2 m/S 763 mmHg 84%
    05:00 -4°C° 0 mm 2 m/S 763 mmHg 83%
    06:00 -4°C° 0 mm 2 m/S 763 mmHg 82%
    07:00 -4°C° 0 mm 2 m/S 763 mmHg 81%
    08:00 -3°C° 0 mm 2 m/S 763 mmHg 74%
    09:00 -2°C° 0 mm 2 m/S 763 mmHg 66%
    10:00 -1°C° 0 mm 2 m/S 764 mmHg 59%
    11:00 +1°C° 0 mm 2 m/S 763 mmHg 57%
    12:00 +1°C° 0 mm 3 m/S 763 mmHg 54%
    13:00 +2°C° 0 mm 3 m/S 763 mmHg 51%
    14:00 +2°C° 0 mm 3 m/S 763 mmHg 55%
    15:00 +2°C° 0 mm 3 m/S 763 mmHg 58%
    16:00 +1°C° 0 mm 4 m/S 762 mmHg 61%
    17:00 0°C° 0 mm 4 m/S 762 mmHg 67%
    18:00 0°C° 0 mm 3 m/S 763 mmHg 73%
    19:00 -1°C° 0 mm 3 m/S 763 mmHg 79%
    20:00 -2°C° 0 mm 3 m/S 763 mmHg 80%
    21:00 -4°C° 0 mm 3 m/S 763 mmHg 82%
    22:00 -4°C° 0 mm 3 m/S 763 mmHg 83%
    23:00 -4°C° 0 mm 3 m/S 763 mmHg 82%

    23 Februar, Freitag

    Zeit Temperatur Niederschläge Wind Luftdruck Luftfeuchtigkeit
    00:00 -4°C° 0 mm 3 m/S 763 mmHg 81%
    01:00 -5°C° 0 mm 3 m/S 763 mmHg 80%
    02:00 -5°C° 0 mm 3 m/S 763 mmHg 79%
    03:00 -5°C° 0 mm 3 m/S 763 mmHg 78%
    04:00 -5°C° 0 mm 3 m/S 763 mmHg 76%
    05:00 -5°C° 0 mm 3 m/S 763 mmHg 76%
    06:00 -5°C° 0 mm 4 m/S 764 mmHg 75%
    07:00 -5°C° 0 mm 4 m/S 764 mmHg 75%
    08:00 -4°C° 0 mm 4 m/S 764 mmHg 69%
    09:00 -5°C° 0 mm 5 m/S 764 mmHg 63%
    10:00 -4°C° 0 mm 5 m/S 765 mmHg 58%
    11:00 -2°C° 0 mm 5 m/S 765 mmHg 54%
    12:00 -1°C° 0 mm 5 m/S 765 mmHg 50%
    13:00 -1°C° 0 mm 5 m/S 765 mmHg 47%
    14:00 -1°C° 0 mm 5 m/S 765 mmHg 47%
    15:00 -1°C° 0 mm 5 m/S 765 mmHg 47%
    16:00 -1°C° 0 mm 5 m/S 765 mmHg 47%
    17:00 -2°C° 0 mm 5 m/S 765 mmHg 52%
    18:00 -3°C° 0 mm 4 m/S 765 mmHg 57%
    19:00 -4°C° 0 mm 4 m/S 765 mmHg 62%
    20:00 -5°C° 0 mm 4 m/S 766 mmHg 63%
    21:00 -5°C° 0 mm 4 m/S 766 mmHg 64%
    22:00 -5°C° 0 mm 4 m/S 767 mmHg 65%
    23:00 -5°C° 0 mm 3 m/S 767 mmHg 65%

    24 Februar, Samstag

    Zeit Temperatur Niederschläge Wind Luftdruck Luftfeuchtigkeit
    00:00 -5°C° 0 mm 3 m/S 767 mmHg 65%
    01:00 -6°C° 0 mm 3 m/S 767 mmHg 65%
    02:00 -6°C° 0 mm 3 m/S 767 mmHg 65%
    03:00 -6°C° 0 mm 3 m/S 767 mmHg 66%
    04:00 -5°C° 0 mm 2 m/S 767 mmHg 66%
    05:00 -5°C° 0 mm 2 m/S 768 mmHg 66%
    06:00 -5°C° 0 mm 2 m/S 768 mmHg 67%
    07:00 -5°C° 0 mm 2 m/S 768 mmHg 68%
    08:00 -5°C° 0 mm 3 m/S 769 mmHg 63%
    09:00 -4°C° 0 mm 3 m/S 769 mmHg 57%
    10:00 -2°C° 0 mm 3 m/S 769 mmHg 52%
    11:00 -1°C° 0 mm 3 m/S 769 mmHg 50%
    12:00 -1°C° 0 mm 3 m/S 769 mmHg 47%
    13:00 0°C° 0 mm 3 m/S 769 mmHg 44%
    14:00 0°C° 0 mm 3 m/S 769 mmHg 46%
    15:00 -2°C° 0 mm 4 m/S 769 mmHg 47%
    16:00 -2°C° 0 mm 4 m/S 768 mmHg 48%
    17:00 -3°C° 0 mm 4 m/S 768 mmHg 53%
    18:00 -4°C° 0 mm 3 m/S 768 mmHg 58%
    19:00 -5°C° 0 mm 3 m/S 768 mmHg 63%
    20:00 -5°C° 0 mm 3 m/S 768 mmHg 62%
    21:00 -5°C° 0 mm 3 m/S 768 mmHg 62%
    22:00 -6°C° 0 mm 3 m/S 769 mmHg 61%
    23:00 -7°C° 0 mm 4 m/S 769 mmHg 60%
    Mehr zeigen